This is the latest recevied weather packets stored in our database for station/object EA7URS-13. If no packets are shown the sender has not sent any weather packets the latest 10 day(s).
| Time | Temp. | Humidity | Pressure | Rain* | Wind** | Luminosity | Snow |
|---|---|---|---|---|---|---|---|
| 1788418159 | 24.44° C | 58% | 1012.1 hPa | 0 mm | - | 51 W/m² | - |
| 1788417848 | 24.44° C | 58% | 1012.1 hPa | 0 mm | - | 51 W/m² | - |
| 1788417547 | 24.44° C | 58% | 1012.1 hPa | 0 mm | - | 35 W/m² | - |
| 1788417245 | 24.44° C | 58% | 1012.1 hPa | 0 mm | - | 35 W/m² | - |
| 1788416944 | 0° C | 1% | 1012.1 hPa | 0 mm | - | 22 W/m² | - |
| 1788416643 | 0° C | 1% | 1012.1 hPa | 0 mm | - | 22 W/m² | - |
| 1788416342 | 0° C | 1% | 1011.9 hPa | 0 mm | - | 12 W/m² | - |
| 1788416041 | 0° C | 1% | 1011.9 hPa | 0 mm | - | 12 W/m² | - |
| 1788415740 | 0° C | 1% | 1011.6 hPa | 0 mm | - | 5 W/m² | - |
| 1788415439 | 0° C | 1% | 1011.6 hPa | 0 mm | - | 5 W/m² | - |
| 1788415137 | 0° C | 1% | 1011.6 hPa | 0 mm | - | 1 W/m² | - |
| 1788414836 | 0° C | 1% | 1011.6 hPa | 0 mm | - | 1 W/m² | - |
| 1788414558 | 0° C | 1% | 1011.4 hPa | 0 mm | - | 0 W/m² | - |
| 1788414234 | 0° C | 1% | 1011.4 hPa | 0 mm | - | 0 W/m² | - |
| 1788413933 | 0° C | 1% | 1011.4 hPa | 0 mm | - | 0 W/m² | - |
| 1788413632 | 0° C | 1% | 1011.4 hPa | 0 mm | - | 0 W/m² | - |
| 1788413331 | 0° C | 1% | 1011.5 hPa | 0 mm | - | 0 W/m² | - |
| 1788413030 | 0° C | 1% | 1011.5 hPa | 0 mm | - | 0 W/m² | - |
| 1788412728 | 0° C | 1% | 1011.6 hPa | 0 mm | - | 0 W/m² | - |
| 1788412427 | 0° C | 1% | 1011.6 hPa | 0 mm | - | 0 W/m² | - |
| 1788412126 | 0° C | 1% | 1011.3 hPa | 0 mm | - | 0 W/m² | - |
| 1788411825 | 0° C | 1% | 1011.3 hPa | 0 mm | - | 0 W/m² | - |
| 1788411524 | 0° C | 1% | 1011.1 hPa | 0 mm | - | 0 W/m² | - |
| 1788411223 | 0° C | 1% | 1011.1 hPa | 0 mm | - | 0 W/m² | - |
| 1788410922 | 0° C | 1% | 1011.2 hPa | 0 mm | - | 0 W/m² | - |
* Rain latest hour (hover to see other rain measurements)
** Current wind speed in m/s (hover to see current wind gust speed)